GPS BIIR-08

Last updated on Tue Sep 22 2026 00:03:02 GMT+0000 (Coordinated Universal Time)

1 27663U 03005A 26264.61111111 -.00000006 00000+0 00000+0 0 9990 2 27663 54.8668 211.1411 0150772 53.7222 147.3438 2.00555541173241
UTC large
Height (km)
Speed (km/s)
/
Latitude / Longitude
Inclination (degrees)
Orbital Period (minutes)
Azimuth
Elevation
Range (km)
Doppler Factor

Next 0 passes for location: London (51.5072 / 0.1276)

No passes found over London.
GPS BIIR-08